AirNav   Everest Fuels
 
 891 users online  

8NJ7 Pio Costa Heliport
Pequannock, New Jersey, USA

GOING TO PEQUANNOCK?


FAA INFORMATION EFFECTIVE 10 SEPTEMBER 2020

Location

FAA Identifier: 8NJ7
Lat/Long: 40-56-35.3400N 074-17-26.5700W
40-56.589000N 074-17.442833W
40.9431500,-74.2907139
(estimated)
Elevation: 200 ft. / 61 m (estimated)
Variation: 13W (1995)
From city: 3 miles S of PEQUANNOCK, NJ
Time zone: UTC -4 (UTC -5 during Standard Time)
Zip code: 07440

Heliport Operations

Heliport use: Private use. Permission required prior to landing
Activation date: 08/1997
Control tower: no
ARTCC: NEW YORK CENTER
FSS: MILLVILLE FLIGHT SERVICE STATION
Attendance: UNATNDD
Wind indicator: yes
Segmented circle: no

Heliport Communications

WX ASOS at CDW (4 nm S): 135.5 (973-575-4417)
WX AWOS-3 at MMU (10 nm SW): PHONE 973-290-0135
WX ASOS at TEB (12 nm SE): PHONE 201-393-0855
WX ASOS at EWR (16 nm S): PHONE 973-621-2892
WX AWOS-3PT at JRB (19 nm SE): 128.175 (212-425-1534)
WX AWOS-3 at LDJ (20 nm S): 124.025 (908-862-7383)

Nearby radio navigation aids

VOR radial/distance  VOR name  Freq  Var
TEBr310/11.8TETERBORO VOR/DME108.4011W
SAXr135/13.5SPARTA VORTAC115.7011W
LGAr309/21.4LA GUARDIA VOR/DME113.1012W
BWZr081/25.6BROADWAY VOR/DME114.2011W
STWr108/26.4STILLWATER VOR/DME109.6011W
CRIr329/26.8CANARSIE VOR/DME112.3011W
SBJr053/29.8SOLBERG VOR/DME112.9010W
JFKr320/30.1KENNEDY VOR/DME115.9012W
HUOr165/31.1HUGUENOT VOR/DME116.1011W
CMKr250/37.9CARMEL VOR/DME116.6012W
COLr002/38.4COLTS NECK VOR/DME115.4011W

 
NDB name  Hdg/Dist  Freq  Var  ID
TORBY331/11.021412WTE - .
CHATHAM040/13.725413WCAT -.-. .- -
STANWYCK210/36.826112WSKU ... -.- ..-

Heliport Services

Runway Information

Helipad H1

Dimensions: 20 x 20 ft. / 6 x 6 m
Surface: turf
Traffic pattern: leftleft

Heliport Ownership and Management from official FAA records

Ownership: Privately-owned
Owner: ANTHONY PIO COSTA
1 IRVING ST
PEQUANNOCK, NJ 07082
Phone 201-334-7675
Manager: JOANNE DE NICOLA
67 HOPE CROSSING RD
BELVIDERE, NJ 07823
Phone 908-475-8767

Additional Remarks

FOR CD CTC NEW YORK APCH AT 800-645-3206.

Instrument Procedures

There are no published instrument procedures at 8NJ7.

Some nearby airports with instrument procedures:

N07 - Lincoln Park Airport (1 nm W)
KCDW - Essex County Airport (4 nm S)
KMMU - Morristown Municipal Airport (10 nm SW)
4N1 - Greenwood Lake Airport (11 nm N)
KTEB - Teterboro Airport (12 nm SE)
KEWR - Newark Liberty International Airport (16 nm S)
KJRA - West 30th St Heliport (17 nm SE)
6N5 - East 34th Street Heliport (19 nm SE)
KJRB - Downtown Manhattan/Wall Street Heliport (19 nm SE)
KLDJ - Linden Airport (20 nm S)
 
Loc | Ops | Rwys | IFR | FBO | Links
Com | Nav | Svcs | Stats | Notes
Area around 8NJ7 (Pio Costa Heliport)
 
Road maps at: MapQuest Bing Google
 
Aerial photo
No photo
 
Sectional chart

 
Airport distance calculator
Flying to Pio Costa Heliport? Find the distance to fly.

From to 8NJ7

Sunrise and sunset
Times for 21-Sep-2020
 Local
(UTC-4)
 Zulu
(UTC)
Morning civil twilight06:1810:18
Sunrise06:4610:46
Sunset18:5422:54
Evening civil twilight19:2223:22

Current date and time
Zulu (UTC)  22-Sep-2020 03:52:29
Local (UTC-4)  21-Sep-2020 23:52:29
 
METAR
KCDW 
4nm S 
220253Z AUTO 00000KT 10SM CLR 10/04 A3039 RMK AO2 SLP297 T01000044 58014
KMMU 
11nm SW 
220335Z AUTO 00000KT 10SM CLR 04/03 A3038 RMK AO2
KTEB 
12nm SE 
220251Z 35004KT 10SM CLR 11/03 A3037 RMK AO2 SLP284 T01060033 58016 $
KEWR 
17nm S 
220251Z 33005KT 10SM FEW250 13/02 A3038 RMK AO2 SLP285 T01330022 58016
KNYC 
18nm SE 
220251Z AUTO 02003KT 10SM CLR 13/02 A3040 RMK AO2 SLP284 T01330017 58018 $
KJRB 
19nm SE 
220256Z AUTO 04004KT 10SM CLR 17/04 A3038 RMK AO2 SLP286 T01670039 58019
KLDJ 
20nm S 
220335Z AUTO 00000KT 10SM CLR 11/03 A3037 RMK AO2 T01110026
TAF
KTEB 
12nm SE 
211921Z 2119/2224 05007G15KT P6SM SKC FM212000 06008KT P6SM FEW250 FM220300 01004KT P6SM FEW250 FM221000 35006KT P6SM SKC FM221500 35008G20KT P6SM SKC
KEWR 
17nm S 
211921Z 2119/2224 05007G15KT P6SM FEW060 FM212200 05011KT P6SM FEW250 FM220400 03008KT P6SM FEW250 FM221000 35006KT P6SM SKC FM221600 34009G20KT P6SM SKC
NOTAMs
Click for the latest NOTAMs
NOTAMs are issued by the DoD/FAA and will open in a separate window not controlled by AirNav.

 

 
 

Would you like to see your business listed on this page?

 If your business provides an interesting product or service to pilots, flight crews, aircraft, or users of the Pio Costa Heliport, you should consider listing it here.  To start the listing process, click on the button below
 
Add a business
 

Other Pages about Pio Costa Heliport

Update a link
 
Copyright © AirNav, LLC. All rights reserved. Privacy Policy  Contact